ARCE-1B (47615 NORAD) Tracking and Keplerian Element Data

This shows tracking and keplerian element data for the satellite.

Feedback or suggestion? Click here.




ElementValue
Catalog47615
NameARCE-1B
Epoch Orbit1107
Epoch Day101.94624801
Epoch Year2021
RAAN164.2845
Inclination97.4956
Eccentricity0.0009168
Argument of Perigee344.931
Mean Anonmoly15.1647
Mean Motion15.1249045
Decay Rate1.356E-05
L11 47615U 21006EG 21101.94624801 .00001356 00000-0 81599-4 0 9992
L22 47615 97.4956 164.2845 0009168 344.9310 15.1647 15.12490450 11077

Live tracking and technical data element details for ARCE-1B (NORAD 47615). ARCE-1B can be tracked NOW for your location showing map with azimuth and elevation plus other details from your city location.

Track the satellite on the map from your city or location and see movement details for azimuth, elevation, latitude, longitude, range, height, and movement on the map or in text.







IsCatalogInMostPopularTable: catalog: 47615, numindb: 14
Update: records affected: 1



GetName: 47615 ARCE-1B

Hit Count: updated at: Tue, 13 Apr 2021 05:21:36 GMT